Showing default

NOAA 16, 26536

Orbit data source: Space-Track

NOAA 16, 26536 is a payload satellite owned by NOAA (US) in SSO that was launched on Thu, 21 Sep 2000 UTC via a TITAN II SLV launch vehicle from the Air Force Western Test Range (AFWTR). Payload-class satellites include a variety of spacecraft equipped with specific instruments for various scientific and technological missions. These include communications satellites like Starlink; space stations such as the ISS; scientific satellites like the Hubble; Earth observation satellites from companies like Planet Labs, Umbra, and HawkEye 360; GPS; miniature CubeSats for education and research; and military/defense satellites.

Loading next visibility...
Identifier
26536, 2000-055A
Orbit
SSO
Country
Flag of USUS
Related business
Manufacturer
LM/EW
Mission
Non-operational Civil Weather
Bus & Motor
ATN, Unknown motor
Mass
2,231 kg wet, 1,403 kg dry
Launch date (UTC)
2000-09-21 (25 years ago)
Launch vehicle
TITAN II SLV
Launch site
Air Force Western Test Range (AFWTR)
Object type
Payload
Rocket body
Debris
Shape & HBR
Box + 1 Pan, 3.5 m
Radar Cross Section
11.218 m², Large (>1 m²)

Expand to show TLE details & history
Last TLE update: 6 hours ago

TLE from 6 hours ago
0 NOAA 16
1 26536U 00055A   25310.32121488  .00000143  00000-0  97068-4 0  9994
2 26536  98.4784 331.2314 0009715 216.3385 143.7130 14.13852609592230
Epoch: 2025-11-06T07:42Z
TLE epoch observation values (Epoch: 2025-11-06T07:42:32.965Z)
Latitude
-0.00003°
Longitude
169.81284°
Altitude
854.792 km
Speed
7.422 km/s
True Right ascension
22h 04m 55s
True Declination
0° 00' 00"
Sunlit
Object was in daylight at epoch
Visualization orbit readout
Latitude
Unknown
Longitude
Unknown
Altitude
Unknown
Speed
Unknown
Apparent Right ascension
Unknown
Apparent Declination
Unknown
Sunlit
N/A
Visualization observer readout
Local Sidereal Time
09:30:16
Azimuth
Unknown
Elevation
Unknown
Doppler factor
Unknown
Orbital elements
Apogee altitude
850.39 km
Perigee altitude
836.358 km
Semi-major axis
7,221.511 km
Eccentricity
0.00097
Inclination
98.4784°
RAAN
331.2314°
Arg. of periapsis
216.3385°
True anomaly
143.77882°
Mean anomaly
143.713°
Eccentric anomaly
143.74592°
Mean motion
3.53672 °/min
Orbital period
101.79 mins
BSTAR
0.000097068
Loading maneuver chart data...
Computing Atmospheric mass density...
Loading historical data...
Loading historical data...
Loading historical data...
Loading historical data...
Loading historical data...
Loading historical data...
Loading historical data...

Documentation

Showing up to 5 results
|